| time (UTC) | temp F | wind direction | speed MPH | gust MPH | rain 1hr in | rain 24hr in | rain mn in | humidity % | barometer mb |
| 20260503222254 | 75 | 230 | 4.0 | 13.0 | 0.00 | 0.00 | 0.00 | 31 | 1007.5 |
| 20260503221751 | 76 | 253 | 2.0 | 2.0 | 0.00 | 0.00 | 0.00 | 30 | 1007.6 |
| 20260503221243 | 75 | 288 | 5.0 | 8.0 | 0.00 | 0.00 | 0.00 | 30 | 1007.8 |
| 20260503220739 | 75 | 275 | 12.0 | 14.0 | 0.00 | 0.00 | 0.00 | 29 | 1007.7 |
| 20260503220237 | 74 | 239 | 5.0 | 9.0 | 0.00 | 0.00 | 0.00 | 30 | 1007.8 |
| 20260503215733 | 75 | 247 | 5.0 | 13.0 | 0.00 | 0.00 | 0.00 | 30 | 1007.8 |
| 20260503215231 | 75 | 228 | 5.0 | 7.0 | 0.00 | 0.00 | 0.00 | 30 | 1007.6 |
| 20260503214729 | 75 | 291 | 5.0 | 8.0 | 0.00 | 0.00 | 0.00 | 30 | 1007.8 |
| 20260503214225 | 75 | 296 | 6.0 | 13.0 | 0.00 | 0.00 | 0.00 | 30 | 1007.9 |
| 20260503213723 | 75 | 302 | 3.0 | 6.0 | 0.00 | 0.00 | 0.00 | 31 | 1007.8 |
| 20260503213220 | 74 | 283 | 3.0 | 8.0 | 0.00 | 0.00 | 0.00 | 30 | 1008.0 |
| 20260503212717 | 73 | 316 | 5.0 | 7.0 | 0.00 | 0.00 | 0.00 | 31 | 1007.7 |
| 20260503212215 | 74 | 261 | 2.0 | 5.0 | 0.00 | 0.00 | 0.00 | 31 | 1007.9 |
| 20260503211712 | 74 | 294 | 7.0 | 8.0 | 0.00 | 0.00 | 0.00 | 29 | 1007.9 |
| 20260503211207 | 74 | 249 | 5.0 | 10.0 | 0.00 | 0.00 | 0.00 | 30 | 1008.0 |
| 20260503210658 | 75 | 320 | 3.0 | 10.0 | 0.00 | 0.00 | 0.00 | 31 | 1007.9 |
| 20260503210155 | 75 | 316 | 3.0 | 11.0 | 0.00 | 0.00 | 0.00 | 31 | 1008.1 |
| 20260503205650 | 75 | 298 | 5.0 | 13.0 | 0.00 | 0.00 | 0.00 | 30 | 1008.3 |
| 20260503205147 | 75 | 274 | 7.0 | 14.0 | 0.00 | 0.00 | 0.00 | 30 | 1008.1 |
| 20260503204643 | 75 | 285 | 3.0 | 7.0 | 0.00 | 0.00 | 0.00 | 29 | 1008.2 |
| 20260503204141 | 75 | 332 | 5.0 | 8.0 | 0.00 | 0.00 | 0.00 | 28 | 1008.1 |
| 20260503203638 | 74 | 255 | 6.0 | 11.0 | 0.00 | 0.00 | 0.00 | 30 | 1008.4 |
| 20260503203136 | 74 | 297 | 8.0 | 13.0 | 0.00 | 0.00 | 0.00 | 31 | 1008.4 |
| 20260503202633 | 75 | 265 | 3.0 | 5.0 | 0.00 | 0.00 | 0.00 | 31 | 1008.4 |
| 20260503202131 | 74 | 259 | 6.0 | 11.0 | 0.00 | 0.00 | 0.00 | 30 | 1008.2 |
| 20260503201629 | 75 | 299 | 7.0 | 8.0 | 0.00 | 0.00 | 0.00 | 29 | 1008.5 |
| 20260503201126 | 74 | 317 | 5.0 | 7.0 | 0.00 | 0.00 | 0.00 | 29 | 1008.6 |
| 20260503200621 | 74 | 299 | 4.0 | 8.0 | 0.00 | 0.00 | 0.00 | 31 | 1008.5 |
| 20260503200118 | 73 | 316 | 2.0 | 11.0 | 0.00 | 0.00 | 0.00 | 32 | 1008.6 |
| 20260503195615 | 73 | 306 | 4.0 | 17.0 | 0.00 | 0.00 | 0.00 | 31 | 1008.5 |
| 20260503195111 | 73 | 283 | 7.0 | 10.0 | 0.00 | 0.00 | 0.00 | 31 | 1008.7 |
| 20260503194609 | 73 | 319 | 7.0 | 14.0 | 0.00 | 0.00 | 0.00 | 31 | 1008.8 |
| 20260503194103 | 72 | 324 | 0.0 | 7.0 | 0.00 | 0.00 | 0.00 | 32 | 1008.3 |
| 20260503193600 | 72 | 278 | 3.0 | 10.0 | 0.00 | 0.00 | 0.00 | 31 | 1008.5 |
| 20260503193056 | 72 | 299 | 7.0 | 14.0 | 0.00 | 0.00 | 0.00 | 30 | 1008.5 |
| 20260503192553 | 73 | 287 | 6.0 | 15.0 | 0.00 | 0.00 | 0.00 | 31 | 1008.5 |
| 20260503192049 | 73 | 303 | 9.0 | 13.0 | 0.00 | 0.00 | 0.00 | 30 | 1008.7 |
| 20260503191546 | 73 | 293 | 5.0 | 13.0 | 0.00 | 0.00 | 0.00 | 30 | 1008.7 |
| 20260503191042 | 72 | 295 | 9.0 | 16.0 | 0.00 | 0.00 | 0.00 | 31 | 1008.8 |
| 20260503190539 | 72 | 282 | 9.0 | 10.0 | 0.00 | 0.00 | 0.00 | 32 | 1008.5 |
| 20260503190036 | 73 | 314 | 5.0 | 11.0 | 0.00 | 0.00 | 0.00 | 34 | 1008.6 |
| 20260503185532 | 73 | 270 | 5.0 | 13.0 | 0.00 | 0.00 | 0.00 | 32 | 1008.5 |
| 20260503185027 | 73 | 314 | 9.0 | 13.0 | 0.00 | 0.00 | 0.00 | 35 | 1008.4 |
| 20260503184523 | 72 | 263 | 4.0 | 13.0 | 0.00 | 0.00 | 0.00 | 37 | 1008.3 |
| 20260503184019 | 72 | 254 | 10.0 | 14.0 | 0.00 | 0.00 | 0.00 | 37 | 1008.8 |
| 20260503183516 | 71 | 242 | 6.0 | 9.0 | 0.00 | 0.00 | 0.00 | 38 | 1008.7 |
| 20260503183013 | 71 | 266 | 6.0 | 9.0 | 0.00 | 0.00 | 0.00 | 40 | 1008.6 |
| 20260503182512 | 71 | 298 | 3.0 | 11.0 | 0.00 | 0.00 | 0.00 | 41 | 1008.7 |
| 20260503182009 | 70 | 266 | 2.0 | 13.0 | 0.00 | 0.00 | 0.00 | 45 | 1008.8 |
| 20260503181506 | 69 | 233 | 7.0 | 9.0 | 0.00 | 0.00 | 0.00 | 43 | 1008.9 |
| 20260503181002 | 69 | 238 | 8.0 | 14.0 | 0.00 | 0.00 | 0.00 | 43 | 1009.0 |
| 20260503180500 | 69 | 292 | 5.0 | 8.0 | 0.00 | 0.00 | 0.00 | 44 | 1008.7 |
| 20260503175956 | 68 | 291 | 6.0 | 11.0 | 0.00 | 0.00 | 0.00 | 45 | 1009.2 |
| 20260503175454 | 68 | 318 | 7.0 | 10.0 | 0.00 | 0.00 | 0.00 | 46 | 1008.8 |
| 20260503174951 | 68 | 222 | 7.0 | 14.0 | 0.00 | 0.00 | 0.00 | 47 | 1009.0 |
| 20260503174449 | 67 | 244 | 6.0 | 14.0 | 0.00 | 0.00 | 0.00 | 46 | 1009.0 |
| 20260503173944 | 66 | 228 | 11.0 | 14.0 | 0.00 | 0.00 | 0.00 | 48 | 1009.0 |
| 20260503173440 | 66 | 171 | 7.0 | 11.0 | 0.00 | 0.00 | 0.00 | 48 | 1009.0 |
| 20260503172937 | 66 | 236 | 9.0 | 13.0 | 0.00 | 0.00 | 0.00 | 49 | 1009.2 |
| 20260503172435 | 64 | 227 | 5.0 | 9.0 | 0.00 | 0.00 | 0.00 | 52 | 1009.5 |
| 20260503171931 | 65 | 208 | 5.0 | 15.0 | 0.00 | 0.00 | 0.00 | 51 | 1009.6 |
| 20260503171427 | 64 | 267 | 3.0 | 8.0 | 0.00 | 0.00 | 0.00 | 53 | 1009.3 |
| 20260503170925 | 65 | 228 | 8.0 | 11.0 | 0.00 | 0.00 | 0.00 | 50 | 1009.1 |
| 20260503170421 | 66 | 199 | 6.0 | 8.0 | 0.00 | 0.00 | 0.00 | 50 | 1009.5 |
| 20260503150814 | 62 | 268 | 4.0 | 11.0 | 0.00 | 0.00 | 0.00 | 50 | 1009.4 |
| 20260503150309 | 62 | 251 | 4.0 | 6.0 | 0.00 | 0.00 | 0.00 | 50 | 1009.4 |
| 20260503140234 | 59 | 226 | 6.0 | 11.0 | 0.00 | 0.00 | 0.00 | 53 | 1009.5 |
| 20260503131204 | 55 | 227 | 5.0 | 11.0 | 0.00 | 0.00 | 0.00 | 57 | 1009.7 |
| 20260503130701 | 55 | 234 | 8.0 | 10.0 | 0.00 | 0.00 | 0.00 | 56 | 1009.7 |
| 20260503130158 | 55 | 222 | 8.0 | 14.0 | 0.00 | 0.00 | 0.00 | 55 | 1009.8 |
| 20260503120124 | 55 | 245 | 5.0 | 10.0 | 0.00 | 0.00 | 0.00 | 52 | 1010.5 |
| 20260503110551 | 53 | 216 | 6.0 | 10.0 | 0.00 | 0.00 | 0.00 | 55 | 1009.8 |
| 20260503090438 | 51 | 190 | 5.0 | 9.0 | 0.00 | 0.00 | 0.00 | 56 | 1011.3 |
| 20260503081359 | 51 | 226 | 5.0 | 9.0 | 0.00 | 0.00 | 0.00 | 55 | 1012.3 |
| 20260503080855 | 51 | 225 | 8.0 | 11.0 | 0.00 | 0.00 | 0.00 | 55 | 1012.1 |
| 20260503080352 | 51 | 204 | 7.0 | 10.0 | 0.00 | 0.00 | 0.00 | 55 | 1012.2 |
| 20260503072829 | 51 | 195 | 6.0 | 10.0 | 0.00 | 0.00 | 0.00 | 54 | 1012.6 |
| 20260503072326 | 51 | 218 | 7.0 | 9.0 | 0.00 | 0.00 | 0.00 | 54 | 1012.9 |
| 20260503071822 | 51 | 219 | 7.0 | 10.0 | 0.00 | 0.00 | 0.00 | 54 | 1012.6 |
| 20260503071320 | 51 | 196 | 7.0 | 11.0 | 0.00 | 0.00 | 0.00 | 54 | 1012.5 |
| 20260503070816 | 51 | 216 | 8.0 | 14.0 | 0.00 | 0.00 | 0.00 | 53 | 1012.4 |
| 20260503070314 | 51 | 200 | 6.0 | 11.0 | 0.00 | 0.00 | 0.00 | 55 | 1012.3 |
| 20260503060233 | 51 | 217 | 6.0 | 9.0 | 0.00 | 0.00 | 0.00 | 54 | 1013.6 |
| 20260503054720 | 51 | 218 | 5.0 | 9.0 | 0.00 | 0.00 | 0.00 | 54 | 1013.6 |
| 20260503054217 | 51 | 213 | 6.0 | 8.0 | 0.00 | 0.00 | 0.00 | 54 | 1013.9 |
| 20260503053715 | 51 | 234 | 5.0 | 7.0 | 0.00 | 0.00 | 0.00 | 55 | 1014.0 |
| 20260503053213 | 50 | 222 | 6.0 | 7.0 | 0.00 | 0.00 | 0.00 | 56 | 1014.0 |
| 20260503052709 | 50 | 203 | 4.0 | 7.0 | 0.00 | 0.00 | 0.00 | 56 | 1014.2 |
| 20260503052206 | 49 | 214 | 3.0 | 6.0 | 0.00 | 0.00 | 0.00 | 58 | 1014.2 |
| 20260503051701 | 49 | 196 | 2.0 | 5.0 | 0.00 | 0.00 | 0.00 | 59 | 1014.2 |
| 20260503051159 | 49 | 220 | 4.0 | 5.0 | 0.00 | 0.00 | 0.00 | 58 | 1014.1 |
| 20260503050655 | 50 | 206 | 3.0 | 5.0 | 0.00 | 0.00 | 0.00 | 58 | 1014.2 |
| 20260503050152 | 50 | 212 | 3.0 | 3.0 | 0.00 | 0.00 | 0.00 | 58 | 1014.4 |
| 20260503045649 | 50 | 204 | 3.0 | 5.0 | 0.00 | 0.00 | 0.00 | 57 | 1014.4 |
| 20260503045147 | 50 | 212 | 3.0 | 3.0 | 0.00 | 0.00 | 0.00 | 57 | 1014.3 |
| 20260503044643 | 50 | 197 | 3.0 | 5.0 | 0.00 | 0.00 | 0.00 | 56 | 1014.4 |
| 20260503044141 | 50 | 198 | 3.0 | 5.0 | 0.00 | 0.00 | 0.00 | 56 | 1014.6 |
| 20260503043637 | 50 | 202 | 3.0 | 3.0 | 0.00 | 0.00 | 0.00 | 56 | 1014.5 |
| 20260503043134 | 50 | 220 | 3.0 | 5.0 | 0.00 | 0.00 | 0.00 | 57 | 1014.3 |
| 20260503042631 | 50 | 215 | 2.0 | 3.0 | 0.00 | 0.00 | 0.00 | 58 | 1014.5 |
| 20260503042127 | 50 | 207 | 3.0 | 3.0 | 0.00 | 0.00 | 0.00 | 58 | 1014.6 |
| 20260503041623 | 50 | 214 | 3.0 | 3.0 | 0.00 | 0.00 | 0.00 | 56 | 1014.7 |
| 20260503041121 | 50 | 210 | 3.0 | 3.0 | 0.00 | 0.00 | 0.00 | 56 | 1014.8 |
| 20260503040618 | 50 | 219 | 3.0 | 3.0 | 0.00 | 0.00 | 0.00 | 56 | 1014.9 |
| 20260503040116 | 50 | 215 | 2.0 | 3.0 | 0.00 | 0.00 | 0.00 | 55 | 1014.8 |
| 20260503035612 | 50 | 212 | 2.0 | 3.0 | 0.00 | 0.00 | 0.00 | 55 | 1015.1 |
| 20260503035110 | 51 | 213 | 2.0 | 3.0 | 0.00 | 0.00 | 0.00 | 55 | 1015.1 |
| 20260503034607 | 51 | 223 | 2.0 | 2.0 | 0.00 | 0.00 | 0.00 | 54 | 1015.4 |
| 20260503034104 | 51 | 217 | 1.0 | 2.0 | 0.00 | 0.00 | 0.00 | 53 | 1015.1 |
| 20260503033601 | 51 | 217 | 2.0 | 2.0 | 0.00 | 0.00 | 0.00 | 54 | 1015.1 |
| 20260503033059 | 51 | 209 | 3.0 | 3.0 | 0.00 | 0.00 | 0.00 | 53 | 1015.2 |
| 20260503032557 | 51 | 210 | 2.0 | 2.0 | 0.00 | 0.00 | 0.00 | 53 | 1015.4 |
| 20260503032055 | 51 | 218 | 2.0 | 3.0 | 0.00 | 0.00 | 0.00 | 54 | 1015.3 |
| 20260503031552 | 51 | 220 | 3.0 | 5.0 | 0.00 | 0.00 | 0.00 | 53 | 1015.2 |
| 20260503031050 | 52 | 220 | 2.0 | 2.0 | 0.00 | 0.00 | 0.00 | 52 | 1015.4 |
| 20260503030545 | 52 | 216 | 3.0 | 3.0 | 0.00 | 0.00 | 0.00 | 53 | 1015.5 |
| 20260503030043 | 52 | 223 | 2.0 | 3.0 | 0.00 | 0.00 | 0.00 | 52 | 1015.6 |
| 20260503025539 | 52 | 211 | 2.0 | 3.0 | 0.00 | 0.00 | 0.00 | 52 | 1015.6 |
| 20260503025037 | 52 | 218 | 1.0 | 3.0 | 0.00 | 0.00 | 0.00 | 52 | 1015.6 |
| 20260503024533 | 53 | 219 | 2.0 | 3.0 | 0.00 | 0.00 | 0.00 | 50 | 1015.7 |
| 20260503024030 | 53 | 209 | 2.0 | 3.0 | 0.00 | 0.00 | 0.00 | 50 | 1015.6 |
| 20260503023521 | 53 | 213 | 2.0 | 2.0 | 0.00 | 0.00 | 0.00 | 50 | 1015.6 |
| 20260503023019 | 53 | 216 | 3.0 | 3.0 | 0.00 | 0.00 | 0.00 | 49 | 1015.7 |
| 20260503022515 | 53 | 220 | 1.0 | 3.0 | 0.00 | 0.00 | 0.00 | 49 | 1015.8 |
| 20260503022009 | 53 | 211 | 2.0 | 3.0 | 0.00 | 0.00 | 0.00 | 49 | 1015.7 |
| 20260503021506 | 53 | 224 | 2.0 | 2.0 | 0.00 | 0.00 | 0.00 | 49 | 1015.7 |
| 20260503021003 | 53 | 228 | 2.0 | 2.0 | 0.00 | 0.00 | 0.00 | 48 | 1015.7 |
| 20260503020501 | 54 | 234 | 1.0 | 2.0 | 0.00 | 0.00 | 0.00 | 48 | 1015.6 |
| 20260503015957 | 54 | 233 | 1.0 | 2.0 | 0.00 | 0.00 | 0.00 | 48 | 1015.7 |
| 20260503015454 | 54 | 236 | 2.0 | 2.0 | 0.00 | 0.00 | 0.00 | 48 | 1015.7 |
| 20260503014950 | 54 | 242 | 1.0 | 2.0 | 0.00 | 0.00 | 0.00 | 47 | 1015.7 |
| 20260503014447 | 55 | 242 | 1.0 | 2.0 | 0.00 | 0.00 | 0.00 | 46 | 1015.9 |
| 20260503013945 | 55 | 242 | 1.0 | 2.0 | 0.00 | 0.00 | 0.00 | 46 | 1015.7 |
| 20260503013442 | 55 | 239 | 1.0 | 2.0 | 0.00 | 0.00 | 0.00 | 45 | 1015.8 |
| 20260503012939 | 56 | 230 | 1.0 | 2.0 | 0.00 | 0.00 | 0.00 | 45 | 1015.6 |
| 20260503012437 | 56 | 230 | 2.0 | 3.0 | 0.00 | 0.00 | 0.00 | 44 | 1015.7 |
| 20260503011933 | 56 | 242 | 1.0 | 1.0 | 0.00 | 0.00 | 0.00 | 44 | 1015.7 |
| 20260503011430 | 56 | 241 | 1.0 | 1.0 | 0.00 | 0.00 | 0.00 | 45 | 1015.7 |
| 20260503010927 | 57 | 226 | 3.0 | 3.0 | 0.00 | 0.00 | 0.00 | 42 | 1015.7 |
| 20260503010424 | 58 | 234 | 2.0 | 2.0 | 0.00 | 0.00 | 0.00 | 41 | 1015.6 |
| 20260503005921 | 58 | 238 | 1.0 | 3.0 | 0.00 | 0.00 | 0.00 | 40 | 1015.7 |
| 20260503005418 | 59 | 240 | 2.0 | 3.0 | 0.00 | 0.00 | 0.00 | 41 | 1015.6 |
| 20260503004915 | 59 | 227 | 3.0 | 3.0 | 0.00 | 0.00 | 0.00 | 39 | 1015.6 |
| 20260503004412 | 59 | 228 | 2.0 | 3.0 | 0.00 | 0.00 | 0.00 | 39 | 1015.8 |
| 20260503003909 | 60 | 227 | 3.0 | 3.0 | 0.00 | 0.00 | 0.00 | 39 | 1015.7 |
| 20260503003405 | 61 | 238 | 2.0 | 3.0 | 0.00 | 0.00 | 0.00 | 37 | 1015.6 |
| 20260503002857 | 61 | 225 | 2.0 | 3.0 | 0.00 | 0.00 | 0.00 | 37 | 1015.7 |
| 20260503002355 | 61 | 256 | 1.0 | 3.0 | 0.00 | 0.00 | 0.00 | 37 | 1015.9 |
| 20260503001851 | 61 | 252 | 1.0 | 5.0 | 0.00 | 0.00 | 0.00 | 36 | 1015.9 |
| 20260503001347 | 62 | 211 | 3.0 | 6.0 | 0.00 | 0.00 | 0.00 | 36 | 1016.0 |
| 20260503000845 | 62 | 228 | 4.0 | 5.0 | 0.00 | 0.00 | 0.00 | 35 | 1015.9 |
| 20260503000342 | 62 | 222 | 3.0 | 7.0 | 0.00 | 0.00 | 0.00 | 35 | 1015.9 |
| 20260502235838 | 62 | 277 | 3.0 | 7.0 | 0.00 | 0.00 | 0.00 | 33 | 1015.9 |
| 20260502235336 | 62 | 254 | 4.0 | 9.0 | 0.00 | 0.00 | 0.00 | 34 | 1016.2 |
| 20260502234833 | 62 | 229 | 5.0 | 8.0 | 0.00 | 0.00 | 0.00 | 36 | 1016.1 |
| 20260502234329 | 63 | 219 | 2.0 | 3.0 | 0.00 | 0.00 | 0.00 | 33 | 1016.2 |
| 20260502233826 | 63 | 227 | 5.0 | 6.0 | 0.00 | 0.00 | 0.00 | 32 | 1016.3 |
| 20260502233322 | 63 | 268 | 2.0 | 7.0 | 0.00 | 0.00 | 0.00 | 32 | 1016.2 |
| 20260502232820 | 63 | 264 | 6.0 | 10.0 | 0.00 | 0.00 | 0.00 | 32 | 1016.2 |
| 20260502232316 | 63 | 296 | 3.0 | 8.0 | 0.00 | 0.00 | 0.00 | 31 | 1016.4 |
| 20260502231812 | 63 | 250 | 4.0 | 7.0 | 0.00 | 0.00 | 0.00 | 32 | 1016.3 |
| 20260502231311 | 63 | 251 | 3.0 | 8.0 | 0.00 | 0.00 | 0.00 | 32 | 1016.5 |
| 20260502230808 | 64 | 246 | 5.0 | 9.0 | 0.00 | 0.00 | 0.00 | 31 | 1016.5 |
| 20260502230306 | 64 | 222 | 4.0 | 7.0 | 0.00 | 0.00 | 0.00 | 31 | 1016.5 |
| 20260502225803 | 65 | 274 | 3.0 | 5.0 | 0.00 | 0.00 | 0.00 | 29 | 1016.4 |
| 20260502225259 | 64 | 277 | 1.0 | 2.0 | 0.00 | 0.00 | 0.00 | 32 | 1016.5 |
| 20260502224756 | 63 | 276 | 1.0 | 6.0 | 0.00 | 0.00 | 0.00 | 33 | 1016.6 |
| 20260502224252 | 64 | 275 | 2.0 | 3.0 | 0.00 | 0.00 | 0.00 | 34 | 1016.5 |
| 20260502223750 | 63 | 220 | 3.0 | 8.0 | 0.00 | 0.00 | 0.00 | 31 | 1016.8 |
| 20260502223248 | 64 | 219 | 5.0 | 7.0 | 0.00 | 0.00 | 0.00 | 30 | 1016.7 |
| 20260502222745 | 64 | 305 | 4.0 | 7.0 | 0.00 | 0.00 | 0.00 | 32 | 1016.7 |